Tracking 22454 objects as of 5-Mar-2021
HD Live streaming from Space Station
objects crossing your sky now

FREGAT DEB

Track FREGAT DEB now!
10-day predictions


NORAD ID: 46406
Int'l Code: 2011-037LK
Perigee: 792.9 km
Apogee: 4,454.9 km
Inclination: 51.6 °
Period: 141.5 minutes
Semi major axis: 8994 km
RCS: Unknown
Launch date: July 18, 2011
Source: Commonwealth of Independent States (former USSR) (CIS)
Launch site: TYURATAM MISSILE AND SPACE COMPLEX (TTMTR)

Note: This is SATELLITE DEBRIS
aabbcc
Your satellite tracking list
Your tracking list is empty




NASA's NSSDC Master Catalog

Two Line Element Set (TLE):
1 46406U 11037LM  20322.44088523 +.00002523 +00000-0 +78070-2 0  9991
2 46406 051.5961 062.5540 2035614 262.3608 074.2845 10.17680816011234
Source of the keplerian elements: AFSPC